Theta_e
355 356 355 351 356 360 364 362 357 356 357 354 353 354 358 358 360 357 350 351 349 349 350 351 351 350 349 344 342 343 345 349 349 347 349 350 352 353 352 353 352 349 348 353 353 353 352 351 349
350 350 344 348 357 359 359 354 360 356 354 352 354 354 357 361 352 353 352 350 349 349 350 350 350 351 353 351 347 346 351 352 350 350 352 354 353 354 353 352 350 348 350 352 352 353 353 352 351
347 348 344 353 360 360 359 355 354 355 353 353 357 353 356 357 352 351 352 351 351 350 350 349 349 350 352 352 349 349 350 352 351 350 349 349 349 350 350 349 350 349 349 350 352 350 351 351 350
348 346 350 358 361 361 361 356 356 354 352 354 355 359 353 350 351 353 352 351 351 350 350 351 351 352 351 352 352 353 352 352 351 351 351 354 354 354 354 353 353 350 348 349 351 351 350 349 347
347 344 350 358 360 359 357 352 356 355 357 358 356 357 356 351 352 353 352 352 351 349 349 350 350 351 350 351 352 351 352 354 352 352 354 354 355 354 353 354 352 352 352 352 351 350 342 350 349
349 344 351 352 353 357 355 353 354 358 358 356 356 355 355 354 353 354 353 352 351 349 351 349 350 351 351 353 354 353 353 354 351 350 352 352 352 352 351 351 346 350 350 350 349 344 343 344 344
349 350 353 350 355 356 355 351 354 357 358 358 353 356 353 354 353 353 352 352 350 348 349 348 350 353 353 352 354 353 353 353 354 353 346 347 352 348 349 348 346 335 344 347 344 338 340 340 340
347 346 348 348 353 354 352 350 353 354 359 351 350 357 356 350 352 352 352 351 349 349 348 346 349 350 350 351 353 353 353 353 354 353 350 336 349 349 348 336 339 335 338 339 339 340 342 339 340
342 343 344 347 350 350 353 350 349 348 355 354 352 350 348 351 350 351 352 352 350 350 349 346 348 349 348 349 352 352 353 353 353 352 351 350 339 334 344 340 338 337 340 341 341 344 345 345 346
340 338 339 342 346 346 350 348 348 356 355 355 352 349 350 349 349 351 351 349 349 349 349 348 349 348 349 348 350 350 350 349 348 346 341 342 338 338 340 342 346 346 343 342 341 343 344 345 346
339 341 339 342 345 346 346 346 349 354 356 354 353 351 349 348 349 350 350 349 349 348 347 349 348 351 349 350 348 351 350 346 341 341 341 339 338 341 340 340 341 342 343 342 345 342 341 340 342
339 339 340 345 348 346 345 345 354 353 352 351 349 349 348 349 348 349 349 350 351 352 347 345 347 349 349 349 349 349 351 345 340 340 342 340 339 339 340 338 337 339 341 339 341 338 337 339 340
332 336 338 345 346 344 346 347 348 351 353 350 349 350 349 348 348 349 349 348 349 349 350 347 344 348 348 347 347 347 348 344 343 342 343 342 343 343 342 342 340 337 338 341 339 335 336 337 338
332 336 337 345 347 346 347 345 347 352 352 352 350 351 351 350 350 349 349 348 348 347 347 348 344 342 343 345 345 344 345 344 345 345 344 343 341 343 343 343 343 341 336 338 337 335 334 334 335
331 336 334 344 346 347 344 345 346 352 353 354 352 350 349 349 350 350 350 349 349 348 345 343 344 342 343 344 342 344 345 345 346 346 344 345 341 341 342 343 344 343 342 338 334 333 333 335 338
331 332 335 334 345 344 343 344 344 350 353 356 354 352 351 349 348 349 350 350 350 350 349 347 346 345 344 346 346 346 346 346 346 346 343 341 342 342 342 343 344 344 343 343 343 341 340 340 342
329 332 335 334 342 346 342 342 338 351 350 353 354 353 352 350 349 350 349 350 350 351 351 350 350 348 346 346 347 347 347 348 348 347 343 343 344 343 343 344 344 344 344 345 346 344 342 341 342
333 332 332 335 335 346 344 336 353 352 351 351 350 349 351 351 350 349 350 350 350 350 351 351 350 350 350 348 348 348 348 348 349 349 346 346 346 344 343 344 343 344 345 346 346 346 343 342 342
330 329 330 330 334 340 344 337 332 353 352 351 350 349 347 347 345 346 348 349 350 349 349 349 349 350 350 349 349 348 348 348 348 348 347 346 346 344 343 344 343 344 344 342 346 346 345 346 345
328 326 326 328 329 328 325 332 339 352 353 351 351 349 348 346 343 342 343 347 349 349 348 349 349 349 349 349 349 348 348 348 348 348 348 348 345 346 344 345 343 343 345 342 346 346 346 347 346
325 326 327 328 325 326 327 331 337 339 342 345 349 347 346 346 344 342 342 345 346 347 347 348 348 349 349 349 349 348 348 347 347 349 349 349 349 348 347 345 343 343 345 342 345 347 347 345 345
326 325 327 326 324 326 325 327 336 336 340 346 343 348 346 345 344 343 347 344 345 346 346 347 348 349 349 349 349 349 348 348 349 349 350 350 349 348 347 345 345 344 344 344 343 343 346 345 345
324 327 326 326 323 324 326 331 335 336 341 349 349 347 347 346 347 349 347 346 345 346 346 347 348 349 350 350 350 350 350 350 350 350 350 350 350 349 348 347 347 346 346 345 345 344 345 345 345
324 324 322 324 321 324 328 334 341 341 340 342 347 347 348 345 343 340 342 342 342 347 348 347 348 349 349 350 350 351 350 350 349 350 351 351 351 350 350 350 350 349 347 344 343 345 344 343 344
322 321 324 327 333 333 332 337 335 337 337 339 343 346 346 346 344 345 343 341 341 342 352 351 350 350 350 350 350 347 347 344 344 346 349 351 351 350 351 351 350 349 349 345 343 346 347 345 343
323 322 322 328 326 326 335 341 339 339 345 343 343 350 352 348 345 346 349 349 348 344 342 354 352 351 350 344 339 337 336 344 346 342 345 348 348 347 350 350 350 350 350 350 346 345 347 347 346
322 322 320 324 332 337 337 338 336 343 343 346 353 353 352 350 348 349 350 349 349 345 347 357 354 347 347 348 341 336 336 336 344 345 349 349 349 351 351 350 349 350 350 348 348 347 341 339 341
322 319 324 323 339 343 341 343 340 345 345 346 351 353 352 346 346 350 350 349 350 349 345 348 346 343 342 340 339 338 342 337 340 340 344 351 353 354 352 352 351 350 349 347 342 341 339 343 343
325 328 322 324 330 337 339 339 334 340 343 345 351 353 350 345 344 347 348 349 349 351 348 345 346 344 345 346 343 340 345 340 340 344 349 352 353 353 352 352 352 351 349 347 343 336 341 344 347
329 330 326 330 334 334 333 336 333 335 340 341 348 345 341 343 341 344 345 347 346 347 349 351 351 352 351 351 350 350 348 350 350 351 351 353 353 352 351 350 351 351 349 346 340 339 341 346 347
Wind_Speed
7 6 3 0 4 4 2 5 2 3 3 3 4 2 7 4 2 2 13 11 27 25 22 23 24 24 23 25 25 25 23 23 23 22 21 20 18 18 17 17 18 16 14 14 15 15 16 16 16
7 1 1 1 5 4 3 2 4 3 4 7 9 6 4 4 3 10 10 23 29 27 25 24 23 23 22 23 24 24 23 23 24 23 20 19 20 19 18 19 19 16 15 16 16 16 16 15 15
2 3 3 4 3 3 2 1 3 1 2 3 4 6 3 3 10 11 15 27 28 27 25 23 24 24 23 24 25 25 24 23 23 22 21 20 20 19 17 18 19 17 15 16 15 14 14 13 14
2 4 4 5 3 2 1 4 0 1 4 8 5 6 5 10 9 8 27 27 28 28 25 23 23 23 22 23 23 23 24 23 23 23 21 19 21 20 19 18 16 16 14 14 14 13 12 11 11
2 3 5 3 5 4 1 1 1 3 4 6 3 4 5 5 10 26 26 25 28 28 25 23 23 22 22 23 23 23 23 22 23 23 20 19 17 19 16 18 16 14 14 13 13 12 11 10 8
4 2 4 2 3 3 5 4 3 4 4 5 8 5 2 11 25 24 25 26 27 28 24 23 22 21 22 22 21 21 20 19 20 20 20 18 19 18 17 15 15 12 11 10 10 11 10 8 7
2 3 1 2 3 3 3 3 6 5 5 3 7 5 3 10 19 25 24 26 26 26 23 23 22 20 19 20 19 20 19 18 18 18 19 17 14 15 15 13 12 10 9 8 7 7 7 6 4
3 3 2 2 3 3 3 2 4 4 3 5 8 6 7 12 21 22 24 24 26 26 24 24 23 21 21 20 18 18 18 18 16 15 15 19 17 12 10 8 7 6 8 7 6 6 5 4 3
3 3 1 3 4 3 5 3 3 4 8 2 3 5 12 26 24 22 21 21 24 26 26 26 25 24 23 21 20 19 18 17 16 14 13 12 13 15 6 7 9 8 8 8 7 6 4 2 2
3 3 7 6 4 4 6 4 7 4 5 4 10 16 27 26 24 21 21 20 21 23 29 28 27 26 25 25 23 21 20 19 17 16 15 16 15 12 10 12 9 9 9 9 8 6 5 6 5
4 5 5 3 4 4 6 4 1 8 2 5 12 16 19 22 18 18 18 20 24 22 26 30 29 27 28 27 26 24 23 20 17 20 20 18 16 16 13 13 14 12 11 12 9 9 7 7 6
3 8 5 3 7 4 8 6 3 2 2 12 18 21 16 16 15 20 20 20 21 20 25 30 30 30 30 29 28 27 26 22 24 22 20 19 19 17 16 17 16 16 17 17 13 10 8 8 7
4 5 3 0 9 6 5 4 3 2 9 16 15 16 17 16 18 18 17 17 20 23 25 29 31 31 30 30 29 29 28 26 23 20 19 15 16 18 14 13 13 15 19 22 18 13 11 11 9
2 5 0 4 7 5 3 2 2 3 14 15 18 16 14 16 20 17 18 20 23 26 27 28 30 31 30 31 30 29 28 25 23 21 21 19 16 15 16 14 12 12 16 19 20 19 17 15 13
4 5 1 3 6 4 7 0 5 5 13 16 14 15 14 12 16 24 28 27 29 29 28 30 30 30 30 30 31 30 28 25 23 24 20 22 18 16 14 15 15 11 11 14 19 21 19 17 14
2 5 2 3 8 2 5 8 6 11 13 12 14 13 13 16 20 20 21 26 30 30 31 29 28 29 30 30 29 29 28 26 26 22 21 22 22 19 18 15 15 14 12 12 15 17 18 17 14
7 2 2 6 8 6 3 7 5 11 12 10 12 13 12 12 15 21 22 24 27 32 30 31 30 30 29 27 26 28 28 28 26 28 21 20 22 21 20 18 15 10 12 13 15 16 18 17 15
5 4 4 5 7 3 6 8 3 9 13 14 11 11 12 13 17 23 24 22 22 27 30 32 32 31 27 25 27 28 26 29 27 26 23 21 21 19 20 18 15 13 12 15 14 15 15 16 16
5 3 6 6 5 5 7 5 5 11 10 9 10 9 9 13 10 19 23 26 26 26 30 32 31 31 29 27 28 28 29 28 27 26 25 23 20 18 19 15 15 15 13 14 12 13 12 13 13
5 2 4 2 4 5 5 3 1 6 10 9 10 10 10 7 6 11 19 25 27 31 31 32 33 32 31 30 30 28 18 21 24 25 23 22 21 18 17 18 16 16 15 13 13 13 9 8 8
3 2 2 3 2 4 6 6 7 4 3 6 8 6 7 9 7 5 12 23 26 30 32 33 31 30 29 29 28 27 25 24 26 26 22 18 16 17 17 18 17 17 17 14 14 14 14 11 7
1 6 3 5 4 3 4 3 4 5 8 5 6 10 9 10 5 4 6 15 26 29 25 26 27 23 18 22 24 25 25 23 23 20 20 19 16 15 16 20 20 18 19 20 18 16 17 15 14
8 2 3 3 5 3 8 5 6 5 6 4 6 5 3 5 6 6 5 12 14 14 17 19 20 18 20 22 18 17 22 25 28 27 21 19 17 16 16 18 20 21 21 21 21 19 17 17 17
3 4 7 5 4 3 4 4 5 4 4 5 3 5 5 8 8 7 6 5 7 2 9 16 20 20 22 23 21 24 24 17 20 27 32 21 18 19 17 17 19 21 23 23 22 20 19 18 18
4 7 4 4 5 4 1 2 6 6 4 3 6 6 5 7 7 6 6 7 3 3 5 14 22 23 23 21 21 25 24 18 15 20 23 29 24 25 21 18 20 21 21 24 23 22 21 20 20
2 7 6 4 3 4 2 1 4 5 5 4 3 5 6 9 10 8 6 10 7 6 5 15 21 23 22 18 18 16 21 14 7 23 28 31 32 32 20 17 20 21 23 25 26 25 21 20 21
3 2 4 8 3 2 2 3 6 5 6 4 5 5 10 14 15 11 8 4 13 6 9 16 19 20 18 20 19 10 9 9 11 26 28 28 31 29 20 19 19 20 22 22 23 22 18 18 19
3 6 4 4 4 3 5 4 5 6 8 6 7 9 7 9 10 10 13 17 20 7 10 14 16 18 16 16 18 11 15 18 19 25 29 28 22 19 19 21 20 21 22 22 21 21 22 21 18
2 3 7 6 3 5 2 6 5 8 8 10 9 6 4 6 8 9 12 12 16 11 1 10 14 12 11 11 12 14 17 16 24 30 29 24 16 14 17 19 20 22 22 23 24 23 18 20 18
3 4 4 5 3 2 2 5 3 7 7 1 6 5 5 6 6 8 12 10 11 10 3 7 9 4 7 7 9 12 17 17 16 18 19 15 14 15 16 17 20 22 24 24 23 19 19 20 23
Wind_Direction
132 144 153 280 52 64 63 337 239 351 42 351 91 146 122 49 52 156 150 148 149 145 145 144 142 138 139 140 141 142 141 137 135 133 131 131 130 131 127 121 114 114 118 116 113 111 111 108 105
107 136 151 79 70 48 310 323 14 48 136 134 106 116 52 75 64 120 126 153 150 147 145 145 144 140 140 139 143 142 137 136 135 134 132 130 127 122 124 122 119 123 122 118 115 111 109 109 111
99 38 75 87 106 144 226 36 11 104 144 73 106 58 67 59 107 137 149 153 151 149 146 146 147 143 142 142 141 141 140 141 141 140 136 132 125 122 120 121 123 124 122 120 116 113 113 116 120
11 13 34 63 351 299 187 9 120 65 65 64 106 64 77 113 130 147 147 154 153 150 150 148 147 143 144 145 144 142 142 142 142 139 137 135 132 127 125 123 121 122 126 125 118 118 121 127 131
359 74 55 48 308 289 236 244 11 29 76 22 66 80 93 123 130 138 150 154 155 154 154 154 151 151 151 152 151 150 149 148 147 145 140 139 136 129 130 130 126 127 128 126 124 126 134 130 135
17 59 41 17 270 281 310 212 9 63 75 120 86 96 69 136 134 146 151 159 162 156 159 158 159 159 157 157 157 155 151 152 154 152 148 148 144 138 138 136 134 131 127 128 132 136 141 143 149
96 75 200 309 295 323 268 103 142 124 132 99 131 88 116 141 144 150 161 162 164 163 165 164 167 164 164 163 163 160 160 161 160 159 154 148 152 143 141 141 144 143 145 145 147 143 141 151 158
109 83 10 266 205 272 173 68 119 119 74 104 141 148 167 164 149 153 163 167 169 171 173 174 173 173 173 172 169 168 168 171 168 164 165 165 156 144 147 145 158 167 173 172 165 156 148 152 171
116 58 241 246 158 205 170 140 126 110 134 92 102 124 140 149 148 149 156 167 176 180 181 182 182 179 182 182 179 179 181 182 178 175 183 178 174 172 208 208 183 190 195 194 191 191 193 201 235
111 136 217 209 179 185 178 143 163 107 132 59 78 104 130 146 154 158 167 175 181 189 189 189 189 188 188 191 188 191 192 193 190 190 205 217 202 207 221 225 198 197 206 207 204 209 213 229 255
180 218 186 248 174 143 142 144 97 117 248 164 152 141 148 152 164 173 179 183 187 193 195 196 196 195 196 198 198 202 202 201 210 208 205 215 222 224 222 217 213 211 217 216 211 219 225 243 272
167 255 176 242 140 115 162 117 110 155 213 143 156 150 154 164 176 183 188 189 189 193 203 202 203 204 205 206 207 211 213 204 218 216 214 219 227 228 228 232 234 232 222 225 223 226 236 246 281
175 290 171 130 123 152 120 84 126 114 107 130 137 151 170 178 185 190 193 195 198 204 208 207 207 211 213 215 219 220 224 224 220 220 225 232 233 232 234 237 240 243 229 228 231 240 245 254 271
265 191 95 137 146 124 92 66 31 119 129 140 152 168 183 189 186 183 191 198 201 209 214 213 213 215 218 219 225 229 230 237 231 227 232 237 243 241 240 239 244 248 232 231 240 249 257 262 272
326 107 17 163 175 142 134 136 228 139 144 154 173 174 187 207 195 194 195 199 204 207 212 217 218 219 222 226 231 235 238 241 243 237 241 241 249 244 245 247 248 246 246 244 247 253 258 260 267
98 58 129 245 135 228 116 265 218 155 151 170 180 182 190 205 215 215 208 203 206 211 212 215 218 222 225 229 236 241 246 247 244 243 252 244 248 248 248 252 257 244 245 249 253 255 254 257 264
9 112 214 297 182 133 139 257 218 166 165 181 191 192 194 211 218 220 221 213 209 214 218 220 219 223 225 229 243 247 253 254 253 240 246 252 248 245 244 251 262 265 245 253 259 258 252 252 260
296 335 294 218 195 166 170 253 156 184 181 189 198 199 198 210 221 215 216 218 214 219 221 225 225 226 227 227 237 246 252 259 264 266 256 265 246 242 240 244 253 258 262 251 249 252 245 249 263
252 191 224 266 201 131 190 255 250 194 199 201 204 209 208 216 219 211 213 215 212 217 221 228 225 225 226 222 233 244 249 255 259 263 266 267 251 250 238 242 250 249 261 257 249 237 234 248 252
233 275 290 296 102 101 174 207 303 200 226 222 207 214 222 234 198 192 193 203 208 216 220 223 229 228 227 230 233 239 258 269 271 273 267 262 258 252 242 239 246 250 253 253 248 242 232 234 227
339 202 283 109 69 66 109 347 346 3 191 216 215 215 209 226 221 166 176 192 207 217 220 223 227 233 230 233 234 241 246 261 266 275 267 260 258 253 252 247 246 245 242 249 251 246 240 239 228
266 199 153 107 77 205 39 228 301 317 289 258 250 217 204 214 163 186 149 192 207 217 223 227 223 228 232 237 238 239 241 250 259 273 281 281 269 254 255 256 257 254 249 250 251 252 250 249 244
231 136 77 59 80 76 357 83 269 347 304 337 338 292 170 104 72 80 156 215 218 217 223 227 223 218 223 225 224 238 244 260 270 273 276 272 273 262 257 255 257 254 251 250 248 245 244 253 255
124 86 46 56 76 40 284 119 300 270 274 318 14 42 77 82 80 84 83 74 71 170 213 214 214 210 221 219 217 226 241 252 278 283 278 270 276 271 254 250 251 254 252 251 249 247 247 249 254
78 56 358 13 17 214 133 64 226 269 268 239 306 42 73 86 83 63 40 15 74 143 150 192 197 193 211 213 225 243 242 230 254 288 290 284 273 270 268 254 250 250 245 245 241 242 247 245 250
100 147 152 175 200 262 287 222 251 255 318 300 9 126 135 121 106 87 57 28 359 245 222 183 193 200 210 210 226 288 251 228 266 297 293 284 274 273 271 266 250 255 250 246 243 241 240 244 249
178 131 161 105 356 49 285 281 318 324 302 318 253 245 184 164 128 112 123 70 38 50 186 192 196 189 209 236 264 301 257 296 276 288 301 282 269 269 269 265 248 249 249 242 239 236 235 242 244
131 151 75 17 133 220 302 280 239 228 246 245 247 233 280 60 88 78 69 22 25 46 171 178 193 210 233 266 278 296 321 278 269 295 290 290 278 273 269 255 247 242 243 235 230 236 246 244 232
55 54 55 111 104 154 180 268 223 228 209 216 237 217 233 75 60 81 72 36 33 26 292 234 241 232 242 278 279 285 302 289 268 282 277 274 271 272 270 262 253 248 241 236 241 251 245 247 231
103 118 118 118 215 51 139 271 346 268 212 118 280 317 349 58 68 71 80 63 9 357 34 229 235 318 308 312 311 303 300 300 292 284 277 267 258 266 271 258 252 249 247 243 240 240 254 251 246